[[[{"header":{"parameterUnit":"kt","parameterCategory":2,"dx":1,"dy":1,"la1":30.253999710083008,"la2":30.299108505249023,"lo1":-89.0895004272461,"lo2":-89.04439544677734,"nx":28,"ny":28,"refTime":"2022-10-26T21:00:00:Z","depth":"0","parameterNumber":2,"parameterNumberName":"U-component_of_CURRENTS"},"data":[0.4824,0.4781,0.4795,0.4681,0.4684,0.4572,0.4563,0.4598,0.4806,0.5061,0.5339,0.5662,0.6307,0.6691,0.6633,0.6432,0.5874,0.5635,0.5541,0.6125,0.6156,0.6186,0.6083,0.5887,0.5887,0.4547,0.4538,0.4531,0.4903,0.4922,0.4959,0.4961,0.4934,0.5031,0.5121,0.51,0.5205,0.5592,0.583,0.6255,0.644,0.6679,0.6874,0.6658,0.6271,0.6469,0.5996,0.5836,0.6585,0.6493,0.6381,0.6381,0.6381,0.6382,0.6382,0.6382,0.5059,0.5055,0.5119,0.5145,0.5201,0.523,0.5218,0.5429,0.5585,0.5828,0.6222,0.6465,0.684,0.7136,0.7113,0.7063,0.6935,0.687,0.6823,0.6552,0.6256,0.7006,0.7082,0.7084,0.7086,0.7088,0.7089,0,0.5159,0.5202,0.5259,0.5304,0.5368,0.543,0.5573,0.5637,0.5948,0.6138,0.6446,0.6648,0.7041,0.7151,0.7344,0.7372,0.7024,0.729,0.7199,0.6707,0.6329,0.6118,0.6893,0.698,0.6982,0.6983,0.6984,0.6985,0.5269,0.5295,0.5421,0.5449,0.552,0.5613,0.5695,0.592,0.6033,0.6407,0.6494,0.6805,0.7015,0.7304,0.7406,0.7506,0.7258,0.733,0.7174,0.7037,0.6975,0.6679,0.6483,0.7005,0.7002,0.7,0.6998,0,0.5329,0.5434,0.5497,0.5669,0.571,0.5756,0.5927,0.6019,0.6225,0.6387,0.6457,0.6771,0.7007,0.7129,0.7305,0.7288,0.721,0.7391,0.7171,0.7158,0.703,0.6964,0.6731,0.6509,0.7426,0.7427,0.7428,0,0.5462,0.5504,0.5657,0.5684,0.5767,0.5912,0.601,0.6146,0.6334,0.6455,0.661,0.6751,0.69,0.704,0.7071,0.7188,0.7231,0.7152,0.7168,0.6986,0.6969,0.6884,0.681,0.7182,0.7181,0.718,0.7179,0,0.5503,0.5639,0.5697,0.5741,0.5917,0.5977,0.6072,0.6241,0.6319,0.6518,0.6597,0.6756,0.6848,0.6917,0.7006,0.6946,0.7162,0.7091,0.7113,0.7112,0.6978,0.6961,0.6961,0.7177,0.7177,0.7177,0.7176,0,0.5603,0.5671,0.5747,0.5885,0.5923,0.5987,0.6144,0.6228,0.64,0.6477,0.6581,0.6642,0.6766,0.6714,0.6873,0.682,0.6848,0.6877,0.6883,0.6885,0.685,0.6791,0.687,0.6757,0.6927,0.6925,0.6923,0,0.5617,0.5699,0.5774,0.5857,0.5914,0.602,0.6113,0.6215,0.6297,0.6399,0.6473,0.6565,0.6546,0.6591,0.6644,0.6722,0.6769,0.6683,0.681,0.6814,0.681,0.6917,0.6728,0.684,0.6895,0.6898,0.69,0,0.5611,0.5746,0.5751,0.5797,0.592,0.5964,0.6063,0.6173,0.6241,0.6302,0.6388,0.6474,0.6502,0.6542,0.657,0.6617,0.6721,0.6605,0.6607,0.6658,0.6874,0.6877,0.6896,0.673,0.6733,0.6736,0.6878,0,0.5678,0.5723,0.5753,0.5838,0.5895,0.5956,0.604,0.6099,0.6136,0.6184,0.6285,0.6332,0.6413,0.6435,0.6442,0.6551,0.6545,0.6536,0.6516,0.6575,0.6626,0.6644,0.6426,0.6425,0.6424,0.6424,0,0,0.5651,0.57,0.5756,0.5806,0.5853,0.5922,0.5972,0.6023,0.6093,0.6132,0.6113,0.6245,0.6284,0.6391,0.6405,0.6424,0.6455,0.6423,0.6534,0.6546,0.6557,0.661,0.6627,0.6422,0.6422,0.6422,0.6422,0,0.567,0.5706,0.5736,0.579,0.587,0.5916,0.5935,0.6003,0.6029,0.6093,0.6111,0.6171,0.6249,0.6299,0.6333,0.6405,0.6433,0.6421,0.6452,0.6525,0.6538,0.655,0.6604,0.662,0.642,0.642,0.642,0,0.5673,0.5714,0.5728,0.5801,0.5848,0.5905,0.5907,0.5964,0.6004,0.6014,0.6071,0.6109,0.6161,0.6236,0.6271,0.6255,0.6402,0.635,0.6353,0.636,0.6434,0.6449,0.6462,0.6298,0.6298,0.6297,0,0,0.5686,0.5715,0.5783,0.5807,0.5842,0.5893,0.5923,0.5945,0.5988,0.6002,0.6037,0.6079,0.6138,0.6169,0.6221,0.6292,0.6319,0.6335,0.6341,0.6346,0.6355,0.643,0.6443,0.6296,0.6296,0.6296,0,0,0.5688,0.5753,0.5766,0.5796,0.5854,0.5912,0.594,0.5954,0.5992,0.599,0.6021,0.6033,0.6108,0.6126,0.6102,0.6224,0.6199,0.6205,0.6219,0.6227,0.6232,0.623,0.6111,0,0,0,0,0,0.5735,0.5749,0.576,0.5772,0.5841,0.591,0.5922,0.5946,0.5935,0.5957,0.5982,0.5998,0.6114,0.6093,0.6111,0.6165,0.6278,0.6281,0.6284,0.6319,0.6327,0.6333,0,0,0,0,0,0,0.574,0.5753,0.5761,0.5816,0.5833,0.5908,0.5891,0.5898,0.5933,0.5932,0.5991,0.6,0.6022,0.6087,0.6103,0.6153,0.6106,0.628,0.6282,0.6285,0.6322,0.6328,0.6333,0,0,0,0,0,0.5744,0.5755,0.5852,0.5816,0.5831,0.5876,0.5889,0.5895,0.5918,0.5972,0.5981,0.5935,0.6022,0.6037,0.6096,0.6145,0.6095,0.6101,0.6281,0.6283,0.6285,0.6325,0,0,0,0,0,0,0.5747,0.5759,0.5856,0.5863,0.5801,0.5872,0.588,0.5892,0.5956,0.5965,0.5918,0.5917,0.6022,0.6034,0.6046,0.6141,0.6087,0.6092,0.6096,0.6283,0.6284,0.6286,0,0,0,0,0,0,0.5754,0.5764,0.5859,0.5838,0.5843,0.5869,0.5876,0.5941,0.5957,0.5897,0.5899,0.5917,0.6013,0.6032,0.6041,0.6141,0.608,0.6086,0.6089,0.6092,0.6284,0.6285,0,0,0,0,0,0,0.576,0.5768,0.5836,0.584,0.5843,0.5917,0.5927,0.5998,0.5932,0.5894,0.5928,0.5926,0.6012,0.6021,0.6038,0.6134,0.6139,0.608,0.6084,0.6087,0.6088,0,0,0,0,0,0,0,0.5764,0.5694,0.5821,0.5841,0.5844,0.5926,0.5928,0.5929,0.5931,0.593,0.5928,0.5927,0.6048,0.6054,0.606,0.6128,0,0,0.608,0.6082,0,0,0,0,0,0,0,0,0.5692,0.5693,0.5821,0.5823,0.5825,0.5926,0.5928,0.5929,0.5931,0.593,0.5929,0.5928,0.605,0.6055,0.606,0,0,0,0,0,0,0,0,0,0,0,0,0,0,0,0.5821,0.5823,0,0.5927,0.5927,0.5928,0.5931,0.593,0.5929,0.5928,0.6051,0.6055,0.6059,0,0,0,0,0,0,0,0,0,0,0,0,0,0,0,0,0,0,0,0,0,0,0,0,0,0,0,0,0,0,0,0,0,0,0,0,0,0,0,0,0,0,0,0,0,0,0,0,0,0,0,0,0,0,0,0,0,0,0,0,0,0,0,0,0,0,0,0,0]}],[{"header":{"parameterUnit":"kt","parameterCategory":2,"dx":1,"dy":1,"la1":30.253999710083008,"la2":30.299108505249023,"lo1":-89.0895004272461,"lo2":-89.04439544677734,"nx":28,"ny":28,"refTime":"2022-10-26T21:00:00:Z","depth":"0","parameterNumber":3,"parameterNumberName":"V-component_of_CURRENTS"},"data":[0.1215,0.1386,0.1464,0.1775,0.1926,0.2182,0.2349,0.2616,0.2833,0.3085,0.3144,0.3112,0.2382,-0.0175,-0.1976,-0.2414,-0.295,-0.3098,-0.3394,-0.2816,-0.2764,-0.2714,-0.275,-0.3232,-0.3235,-0.4153,-0.4162,-0.417,0.1142,0.1242,0.1414,0.162,0.1811,0.1868,0.2144,0.2311,0.2595,0.2812,0.2916,0.2588,0.1633,0.0638,-0.0772,-0.1565,-0.1874,-0.2029,-0.2278,-0.2356,-0.1461,-0.1445,-0.1657,-0.1657,-0.1656,-0.1656,-0.1656,-0.1655,0.102,0.1112,0.125,0.1422,0.1581,0.1787,0.1926,0.2114,0.2327,0.2527,0.247,0.2482,0.1725,0.0708,0.0111,-0.0947,-0.0997,-0.1277,-0.1506,-0.1643,-0.1783,-0.075,-0.0877,-0.0877,-0.0877,-0.0878,-0.0878,0,0.0917,0.0967,0.107,0.1246,0.1375,0.1522,0.1665,0.1789,0.1865,0.1963,0.2088,0.2044,0.1497,0.0992,0.0235,-0.0175,-0.0939,-0.0709,-0.1093,-0.1371,-0.1539,-0.1732,-0.0717,-0.0775,-0.0775,-0.0775,-0.0775,-0.0775,0.0789,0.0868,0.1002,0.1093,0.1127,0.1246,0.1343,0.1363,0.1476,0.1532,0.1625,0.1446,0.137,0.0768,0.0199,-0.0348,-0.0717,-0.069,-0.0769,-0.1106,-0.1401,-0.1566,-0.1678,-0.0774,-0.0774,-0.0774,-0.0774,0,0.0727,0.0747,0.0877,0.0951,0.0982,0.1082,0.1178,0.1266,0.1231,0.1342,0.1336,0.1183,0.0949,0.0565,0.0164,-0.0142,-0.0685,-0.0608,-0.0518,-0.0583,-0.111,-0.1319,-0.172,-0.1874,-0.0857,-0.0858,-0.0859,0,0.0612,0.0695,0.0737,0.0791,0.0921,0.0914,0.1025,0.1006,0.1015,0.1103,0.0888,0.0915,0.0537,0.0358,0.0039,-0.0285,-0.0268,-0.0587,-0.0667,-0.0621,-0.062,-0.101,-0.1231,-0.0616,-0.0615,-0.0613,-0.0612,0,0.05,0.0574,0.0674,0.0691,0.0736,0.0781,0.0804,0.0781,0.0823,0.074,0.0747,0.0572,0.0507,0.0251,-0.0047,-0.0087,-0.0325,-0.0434,-0.0634,-0.0639,-0.0692,-0.07,-0.0996,-0.0611,-0.0611,-0.061,-0.061,0,0.0377,0.0421,0.053,0.0596,0.0614,0.065,0.0694,0.0706,0.0639,0.0581,0.0495,0.0375,0.0269,0.0133,-0.0119,-0.0077,-0.0273,-0.0421,-0.0433,-0.0515,-0.0635,-0.0714,-0.0649,-0.1007,-0.0606,-0.0605,-0.0605,0,0.027,0.0357,0.0333,0.0429,0.0475,0.0413,0.044,0.0415,0.0358,0.0335,0.019,0.0137,-0.0006,-0.0043,-0.0126,-0.0304,-0.0374,-0.0318,-0.0603,-0.0611,-0.0624,-0.0549,-0.0506,-0.0635,-0.0594,-0.0595,-0.0596,0,0.018,0.0186,0.0195,0.0232,0.0202,0.0219,0.0231,0.0215,0.0236,0.0125,0.0133,-0.0009,-0.0096,-0.0162,-0.0278,-0.034,-0.0366,-0.0446,-0.0454,-0.0501,-0.0522,-0.0535,-0.0545,-0.0435,-0.0435,-0.0435,-0.0587,0,0.0086,0.0105,0.0124,0.0126,0.0122,0.0135,0.0078,0.0061,0.0005,-0.0055,-0.0113,-0.0255,-0.0347,-0.0393,-0.0473,-0.0487,-0.0548,-0.0617,-0.0691,-0.061,-0.0691,-0.0697,-0.068,-0.0684,-0.0687,-0.0689,0,0,-0.0003,0.002,-0.0043,-0.0019,-0.002,-0.0117,-0.0076,-0.0126,-0.0213,-0.0228,-0.0287,-0.0447,-0.0555,-0.0598,-0.0578,-0.0644,-0.0705,-0.0661,-0.0646,-0.064,-0.0635,-0.0707,-0.0709,-0.0695,-0.0696,-0.0697,-0.0698,0,-0.0043,-0.0077,-0.0045,-0.0073,-0.0115,-0.0162,-0.0155,-0.0233,-0.0269,-0.0307,-0.0412,-0.0479,-0.061,-0.0682,-0.0738,-0.0681,-0.0811,-0.0717,-0.0596,-0.0669,-0.0659,-0.0651,-0.0718,-0.0718,-0.0705,-0.0705,-0.0704,0,-0.0115,-0.0143,-0.0143,-0.0185,-0.023,-0.0227,-0.032,-0.0338,-0.0336,-0.0494,-0.0522,-0.0621,-0.0745,-0.0788,-0.0818,-0.0856,-0.0899,-0.0893,-0.088,-0.0867,-0.0948,-0.0935,-0.0925,-0.1066,-0.1067,-0.1067,0,0,-0.0143,-0.0139,-0.0207,-0.02,-0.0216,-0.0301,-0.0327,-0.0372,-0.0443,-0.0475,-0.0573,-0.0669,-0.0748,-0.0793,-0.0882,-0.0921,-0.0995,-0.093,-0.0913,-0.0898,-0.0877,-0.0953,-0.0941,-0.1069,-0.1069,-0.1069,0,0,-0.0167,-0.0224,-0.0255,-0.0247,-0.0296,-0.039,-0.0395,-0.0445,-0.0514,-0.052,-0.0657,-0.0688,-0.074,-0.0825,-0.0831,-0.0907,-0.0985,-0.0987,-0.0837,-0.0818,-0.0802,-0.0753,-0.0959,0,0,0,0,0,-0.0238,-0.0211,-0.0238,-0.0247,-0.0328,-0.0372,-0.0388,-0.0464,-0.0496,-0.0497,-0.0582,-0.0676,-0.0849,-0.0858,-0.0889,-0.0875,-0.1093,-0.1088,-0.1085,-0.0904,-0.0882,-0.0864,0,0,0,0,0,0,-0.0242,-0.025,-0.024,-0.0326,-0.0346,-0.0373,-0.0447,-0.0469,-0.0498,-0.0508,-0.0653,-0.068,-0.0779,-0.0852,-0.0878,-0.0861,-0.0951,-0.1091,-0.1087,-0.1084,-0.0896,-0.0879,-0.0863,0,0,0,0,0,-0.0245,-0.0252,-0.0352,-0.0329,-0.0346,-0.0442,-0.0448,-0.0466,-0.0495,-0.0638,-0.0665,-0.0547,-0.0776,-0.0805,-0.0868,-0.0846,-0.0934,-0.0943,-0.1089,-0.1086,-0.1083,-0.0888,0,0,0,0,0,0,-0.0248,-0.0288,-0.0359,-0.0369,-0.0332,-0.0443,-0.0459,-0.0464,-0.0627,-0.065,-0.0539,-0.0545,-0.0774,-0.0797,-0.0819,-0.0832,-0.092,-0.093,-0.0935,-0.1087,-0.1084,-0.1082,0,0,0,0,0,0,-0.0285,-0.0295,-0.0364,-0.0363,-0.0374,-0.0443,-0.0457,-0.0548,-0.063,-0.0522,-0.053,-0.054,-0.0755,-0.0791,-0.0809,-0.0947,-0.091,-0.0919,-0.0925,-0.0929,-0.1085,-0.1083,0,0,0,0,0,0,-0.0292,-0.0301,-0.0362,-0.037,-0.038,-0.0499,-0.0529,-0.062,-0.0587,-0.0515,-0.059,-0.0591,-0.0749,-0.0768,-0.0801,-0.0931,-0.0943,-0.091,-0.0916,-0.092,-0.0923,0,0,0,0,0,0,0,-0.0297,-0.0205,-0.0294,-0.0375,-0.0384,-0.0457,-0.0461,-0.0464,-0.0587,-0.0588,-0.0589,-0.059,-0.0859,-0.0869,-0.0879,-0.0919,0,0,-0.0909,-0.0914,0,0,0,0,0,0,0,0,-0.0204,-0.0205,-0.0294,-0.0296,-0.0298,-0.0458,-0.0461,-0.0463,-0.0588,-0.0588,-0.0589,-0.059,-0.0862,-0.087,-0.0878,0,0,0,0,0,0,0,0,0,0,0,0,0,0,0,-0.0295,-0.0296,0,-0.0458,-0.0461,-0.0463,-0.0588,-0.0588,-0.0589,-0.059,-0.0864,-0.0871,-0.0877,0,0,0,0,0,0,0,0,0,0,0,0,0,0,0,0,0,0,0,0,0,0,0,0,0,0,0,0,0,0,0,0,0,0,0,0,0,0,0,0,0,0,0,0,0,0,0,0,0,0,0,0,0,0,0,0,0,0,0,0,0,0,0,0,0,0,0,0,0]}]],[[{"header":{"parameterUnit":"kt","parameterCategory":2,"dx":1,"dy":1,"la1":30.253999710083008,"la2":30.299108505249023,"lo1":-89.0895004272461,"lo2":-89.04439544677734,"nx":28,"ny":28,"refTime":"2022-10-26T21:00:00:Z","depth":"2","parameterNumber":2,"parameterNumberName":"U-component_of_CURRENTS"},"data":[0.4624,0.4586,0.4598,0.4497,0.4513,0.4409,0.4397,0.4379,0.4488,0.4474,0.4503,0.4889,0.511,0.444,0.4404,0.4118,0.4319,0.3977,0.5464,0.5215,0.5272,0.5438,0.522,0,0,0,0,0,0.4695,0.4719,0.4761,0.4774,0.4752,0.4858,0.4937,0.4892,0.4965,0.523,0.5401,0.5099,0.5091,0.5198,0.5009,0.5072,0.4925,0.4833,0.4549,0.4629,0.4697,0.4488,0.3933,0.3926,0.392,0.3914,0,0,0.4837,0.4838,0.4909,0.4945,0.5011,0.5039,0.503,0.5221,0.5358,0.5547,0.5897,0.5984,0.6119,0.6112,0.5983,0.5905,0.6337,0.6002,0.6016,0.604,0.5913,0.5819,0.5731,0.5737,0.5742,0.5747,0.5752,0,0.4921,0.4972,0.5032,0.5089,0.5163,0.5229,0.5378,0.5436,0.5734,0.5909,0.6177,0.6342,0.6648,0.6545,0.6683,0.6644,0.6541,0.6436,0.7115,0.5928,0.5825,0.5809,0.5827,0.5763,0.577,0.5775,0.5778,0.5781,0.5018,0.5049,0.5184,0.5218,0.5294,0.5402,0.5485,0.571,0.5821,0.6175,0.6252,0.654,0.6706,0.6949,0.699,0.7056,0.7104,0.6585,0.6391,0.6908,0.6897,0.6881,0.6866,0.5855,0.5845,0.5838,0.5832,0,0.5071,0.5173,0.5244,0.5416,0.5461,0.5519,0.5697,0.5791,0.6,0.6159,0.6232,0.6522,0.6731,0.6842,0.6998,0.6963,0.7036,0.7033,0.6502,0.6444,0.6874,0.6858,0.7025,0.7025,0.7025,0.7025,0.7025,0,0.5188,0.5236,0.539,0.5422,0.5509,0.5651,0.576,0.5894,0.6082,0.62,0.6361,0.649,0.6633,0.6758,0.6784,0.6871,0.693,0.682,0.6826,0.6374,0.6332,0.6748,0.6731,0.6884,0.6883,0.6882,0.6881,0,0.5222,0.5358,0.5419,0.5463,0.5629,0.5697,0.5791,0.596,0.6042,0.6247,0.633,0.6484,0.6575,0.6642,0.6719,0.6667,0.6864,0.6796,0.678,0.6777,0.6365,0.6321,0.688,0.688,0.6879,0.6879,0.6879,0,0.531,0.5377,0.5457,0.5591,0.5628,0.5694,0.585,0.5935,0.6107,0.6188,0.6297,0.6358,0.6482,0.6433,0.6584,0.6538,0.6565,0.6589,0.6594,0.6552,0.6505,0.6146,0.6165,0.6629,0.6626,0.6624,0.6622,0,0.5314,0.54,0.5469,0.5556,0.5612,0.5711,0.5802,0.5903,0.5989,0.6097,0.6169,0.6266,0.6248,0.6301,0.6355,0.6425,0.6475,0.6391,0.6504,0.6507,0.6461,0.6579,0.6075,0.615,0.6595,0.6598,0.66,0,0.5301,0.5433,0.5442,0.5489,0.5604,0.5646,0.5746,0.585,0.5925,0.5992,0.6085,0.6169,0.6201,0.6237,0.6264,0.6315,0.6427,0.6306,0.6308,0.6349,0.6579,0.6544,0.6559,0.6438,0.6442,0.6444,0.6578,0,0.5354,0.5404,0.5436,0.5519,0.5573,0.5632,0.571,0.5773,0.5818,0.5865,0.5973,0.6014,0.6094,0.6118,0.6124,0.6238,0.6233,0.6217,0.6184,0.6261,0.6307,0.6325,0.6102,0.6101,0.61,0.6099,0,0,0.5321,0.5371,0.5423,0.5475,0.552,0.5582,0.5632,0.5683,0.5754,0.5797,0.5785,0.5915,0.5945,0.6048,0.6075,0.6089,0.6122,0.6089,0.6216,0.6229,0.6241,0.6289,0.6307,0.6097,0.6097,0.6097,0.6096,0,0.5329,0.5369,0.5403,0.5454,0.5532,0.5569,0.5592,0.5656,0.5688,0.5756,0.5772,0.5834,0.5907,0.5949,0.5979,0.6066,0.6081,0.6089,0.6136,0.6205,0.6219,0.6232,0.6282,0.6299,0.6094,0.6094,0.6094,0,0.5323,0.5362,0.538,0.5448,0.5492,0.5545,0.5547,0.5607,0.5649,0.5651,0.5718,0.5752,0.5795,0.587,0.5907,0.5887,0.6036,0.5982,0.5988,0.5991,0.606,0.6076,0.6091,0.5903,0.5902,0.5901,0,0,0.5329,0.5362,0.5421,0.5451,0.5485,0.5531,0.5562,0.5584,0.5626,0.5644,0.5675,0.5716,0.5769,0.5801,0.5843,0.5913,0.5931,0.5959,0.5968,0.5976,0.5982,0.6053,0.6069,0.5899,0.5899,0.5899,0,0,0.5326,0.5386,0.5401,0.5436,0.5489,0.5536,0.5569,0.5585,0.5627,0.5633,0.5651,0.5662,0.5739,0.575,0.5717,0.5843,0.5805,0.5813,0.584,0.5851,0.586,0.5856,0.5705,0,0,0,0,0,0.5361,0.5381,0.5394,0.5407,0.5471,0.5531,0.5541,0.5569,0.5569,0.5594,0.5622,0.5624,0.5736,0.5706,0.5719,0.5776,0.587,0.5875,0.588,0.5931,0.5943,0.5953,0,0,0,0,0,0,0.5366,0.5379,0.5394,0.5438,0.5454,0.5529,0.5515,0.5523,0.5566,0.5568,0.5617,0.5624,0.5633,0.5701,0.5712,0.5767,0.5701,0.5872,0.5876,0.588,0.5935,0.5945,0.5953,0,0,0,0,0,0.537,0.5381,0.5474,0.5439,0.5452,0.5499,0.5514,0.552,0.5553,0.5589,0.5597,0.5576,0.5633,0.5645,0.5708,0.5762,0.5693,0.5698,0.5875,0.5878,0.5881,0.594,0,0,0,0,0,0,0.5374,0.5382,0.5478,0.5484,0.5431,0.5496,0.5505,0.5518,0.5573,0.5582,0.5548,0.5548,0.5633,0.5642,0.5652,0.576,0.5687,0.5691,0.5694,0.5877,0.588,0.5883,0,0,0,0,0,0,0.5377,0.5386,0.548,0.5469,0.5474,0.5494,0.5501,0.5548,0.5573,0.5527,0.5529,0.5547,0.5627,0.5641,0.5648,0.5719,0.5682,0.5686,0.5689,0.5691,0.588,0.5882,0,0,0,0,0,0,0.5382,0.539,0.5468,0.5471,0.5476,0.5543,0.5536,0.5601,0.556,0.5523,0.5559,0.5558,0.5625,0.5633,0.5645,0.5713,0.5717,0.5682,0.5685,0.5687,0.5688,0,0,0,0,0,0,0,0.5386,0.5321,0.5447,0.5473,0.5477,0.5542,0.5543,0.5544,0.556,0.5559,0.5559,0.5558,0.5659,0.5663,0.5668,0.5708,0,0,0.5682,0.5684,0,0,0,0,0,0,0,0,0.5319,0.532,0.5447,0.5449,0.5451,0.5542,0.5543,0.5544,0.556,0.5559,0.5559,0.5558,0.566,0.5663,0.5667,0,0,0,0,0,0,0,0,0,0,0,0,0,0,0,0.5448,0.5449,0,0.5542,0.5543,0.5544,0.556,0.5559,0.5559,0.5559,0.5661,0.5664,0.5667,0,0,0,0,0,0,0,0,0,0,0,0,0,0,0,0,0,0,0,0,0,0,0,0,0,0,0,0,0,0,0,0,0,0,0,0,0,0,0,0,0,0,0,0,0,0,0,0,0,0,0,0,0,0,0,0,0,0,0,0,0,0,0,0,0,0,0,0,0]}],[{"header":{"parameterUnit":"kt","parameterCategory":2,"dx":1,"dy":1,"la1":30.253999710083008,"la2":30.299108505249023,"lo1":-89.0895004272461,"lo2":-89.04439544677734,"nx":28,"ny":28,"refTime":"2022-10-26T21:00:00:Z","depth":"2","parameterNumber":3,"parameterNumberName":"V-component_of_CURRENTS"},"data":[0.1313,0.1469,0.1543,0.183,0.1976,0.2216,0.2369,0.2581,0.2717,0.2826,0.2784,0.267,0.1869,0.1159,0.0365,-0.0202,-0.0334,-0.0322,-0.022,-0.0035,-0.0025,-0.0574,-0.0469,0,0,0,0,0,0.1252,0.1345,0.1505,0.1699,0.1878,0.1939,0.2193,0.2332,0.2567,0.269,0.2741,0.2217,0.1645,0.0969,-0.0014,-0.06,-0.0652,-0.0791,-0.0719,-0.0713,-0.0709,-0.0651,-0.0757,-0.0759,-0.076,-0.0762,0,0,0.1148,0.1233,0.1363,0.1524,0.1675,0.1868,0.1997,0.2162,0.2346,0.249,0.2422,0.2328,0.176,0.0844,0.0215,-0.0459,-0.0442,-0.0682,-0.0678,-0.0675,-0.0616,-0.0571,-0.071,-0.0711,-0.0712,-0.0712,-0.0713,0,0.106,0.1108,0.1205,0.137,0.1491,0.1631,0.1765,0.1876,0.1944,0.2021,0.2112,0.2047,0.1505,0.1,0.0275,-0.0085,-0.0448,-0.0554,-0.0547,-0.0497,-0.0448,-0.0503,-0.0495,-0.0574,-0.0574,-0.0574,-0.0574,-0.0574,0.095,0.1023,0.1152,0.1236,0.1269,0.138,0.1471,0.1492,0.1594,0.1632,0.1711,0.1521,0.1422,0.0827,0.0291,-0.0236,-0.0317,-0.0535,-0.0592,-0.0558,-0.0618,-0.0606,-0.0595,-0.0574,-0.0574,-0.0574,-0.0574,0,0.0897,0.0918,0.1039,0.1111,0.1141,0.1233,0.1326,0.1404,0.1369,0.1463,0.1455,0.1297,0.1057,0.0689,0.0294,0.0006,-0.0322,-0.045,-0.0337,-0.0393,-0.0591,-0.0582,-0.0701,-0.0703,-0.0705,-0.0707,-0.0708,0,0.0798,0.0874,0.0918,0.0968,0.1087,0.1085,0.1184,0.1165,0.1169,0.1245,0.1045,0.1058,0.0696,0.0515,0.0214,-0.0111,-0.0095,-0.0397,-0.047,-0.0401,-0.0399,-0.0439,-0.0439,-0.0417,-0.0416,-0.0415,-0.0414,0,0.07,0.077,0.0863,0.088,0.0926,0.0965,0.0988,0.0964,0.1002,0.0917,0.0918,0.0744,0.0677,0.0428,0.0144,0.0115,-0.0137,-0.0226,-0.0427,-0.0432,-0.0456,-0.046,-0.0412,-0.0412,-0.0412,-0.0411,-0.0411,0,0.0593,0.0636,0.0736,0.0801,0.0816,0.0851,0.0888,0.09,0.0831,0.0775,0.0688,0.0579,0.0469,0.0347,0.0094,0.0145,-0.0043,-0.0184,-0.0195,-0.0271,-0.0367,-0.0436,-0.0408,-0.0359,-0.0357,-0.0356,-0.0355,0,0.0499,0.058,0.0562,0.0651,0.0693,0.0638,0.0662,0.0638,0.0584,0.0556,0.0419,0.0372,0.0244,0.0211,0.0121,-0.0041,-0.0121,-0.0054,-0.0322,-0.033,-0.0347,-0.0314,-0.0249,-0.0389,-0.034,-0.0341,-0.0342,0,0.042,0.0431,0.0439,0.0474,0.0449,0.0465,0.0475,0.0461,0.0475,0.037,0.0371,0.0248,0.0165,0.0113,0.0014,-0.0053,-0.0105,-0.0141,-0.0149,-0.0201,-0.0271,-0.0292,-0.0306,-0.0164,-0.0164,-0.0165,-0.033,0,0.0343,0.036,0.0377,0.0381,0.0378,0.0389,0.034,0.0321,0.0268,0.0214,0.016,0.0037,-0.004,-0.008,-0.0143,-0.0166,-0.0216,-0.0272,-0.0325,-0.0274,-0.0356,-0.0365,-0.0301,-0.0303,-0.0306,-0.0308,0,0,0.0263,0.0286,0.0231,0.0253,0.0253,0.0165,0.0202,0.0158,0.0082,0.0067,0.0013,-0.0119,-0.0205,-0.0237,-0.0226,-0.0277,-0.0335,-0.0278,-0.0295,-0.0292,-0.0291,-0.0365,-0.0371,-0.0312,-0.0312,-0.0313,-0.0314,0,0.0232,0.0201,0.0229,0.0205,0.0167,0.0127,0.0132,0.0062,0.0028,-0.0002,-0.009,-0.0151,-0.0243,-0.0304,-0.0345,-0.0304,-0.0407,-0.0329,-0.0233,-0.0312,-0.0306,-0.0302,-0.0373,-0.0377,-0.032,-0.0319,-0.0319,0,0.017,0.0146,0.0147,0.0111,0.007,0.0074,-0.001,-0.0028,-0.0026,-0.0153,-0.0176,-0.0257,-0.0349,-0.0381,-0.0402,-0.0429,-0.047,-0.0453,-0.0443,-0.0429,-0.0514,-0.0507,-0.0501,-0.0581,-0.0581,-0.0581,0,0,0.0147,0.0151,0.0092,0.0098,0.0083,0.0008,-0.0015,-0.0056,-0.0115,-0.0143,-0.0219,-0.0294,-0.0352,-0.0383,-0.0449,-0.0473,-0.054,-0.0479,-0.0467,-0.0456,-0.0436,-0.0517,-0.051,-0.0582,-0.0582,-0.0582,0,0,0.0127,0.008,0.0051,0.0056,0.0015,-0.0066,-0.0073,-0.0118,-0.0175,-0.0182,-0.0285,-0.0309,-0.0346,-0.0408,-0.0409,-0.0465,-0.0524,-0.0525,-0.041,-0.0396,-0.0384,-0.0343,-0.0501,0,0,0,0,0,0.0069,0.0091,0.0066,0.0058,-0.0013,-0.0049,-0.0063,-0.0132,-0.0164,-0.0165,-0.0235,-0.03,-0.0429,-0.0432,-0.0453,-0.0439,-0.0596,-0.0594,-0.0591,-0.0451,-0.0435,-0.0422,0,0,0,0,0,0,0.0065,0.0058,0.0065,-0.0008,-0.0026,-0.0051,-0.0116,-0.0136,-0.0165,-0.0174,-0.0284,-0.0303,-0.0376,-0.0428,-0.0445,-0.043,-0.0496,-0.0595,-0.0593,-0.0591,-0.0445,-0.0433,-0.0422,0,0,0,0,0,0.0062,0.0056,-0.0031,-0.0011,-0.0026,-0.0112,-0.0117,-0.0134,-0.0163,-0.0268,-0.0288,-0.021,-0.0373,-0.0394,-0.0439,-0.042,-0.0485,-0.0491,-0.0594,-0.0592,-0.0591,-0.0439,0,0,0,0,0,0,0.006,0.0025,-0.0037,-0.0046,-0.0016,-0.0113,-0.0127,-0.0132,-0.0257,-0.0275,-0.0199,-0.0205,-0.0372,-0.0388,-0.0403,-0.0411,-0.0475,-0.0482,-0.0485,-0.0592,-0.0591,-0.059,0,0,0,0,0,0,0.0028,0.0019,-0.0042,-0.0044,-0.0053,-0.0113,-0.0126,-0.0184,-0.0258,-0.0183,-0.0191,-0.0201,-0.0353,-0.0384,-0.0396,-0.0485,-0.0468,-0.0474,-0.0478,-0.0481,-0.0591,-0.059,0,0,0,0,0,0,0.0022,0.0014,-0.0042,-0.005,-0.0058,-0.0164,-0.0169,-0.0243,-0.0242,-0.0178,-0.0245,-0.0246,-0.0347,-0.0361,-0.039,-0.0474,-0.0482,-0.0469,-0.0473,-0.0475,-0.0477,0,0,0,0,0,0,0,0.0017,0.0098,0.0019,-0.0055,-0.0062,-0.0124,-0.0127,-0.013,-0.0242,-0.0243,-0.0244,-0.0245,-0.0435,-0.0441,-0.0448,-0.0465,0,0,-0.0468,-0.0471,0,0,0,0,0,0,0,0,0.0099,0.0098,0.0019,0.0017,0.0016,-0.0124,-0.0127,-0.0129,-0.0242,-0.0243,-0.0244,-0.0245,-0.0436,-0.0442,-0.0447,0,0,0,0,0,0,0,0,0,0,0,0,0,0,0,0.0019,0.0018,0,-0.0125,-0.0127,-0.0129,-0.0242,-0.0243,-0.0244,-0.0245,-0.0438,-0.0442,-0.0447,0,0,0,0,0,0,0,0,0,0,0,0,0,0,0,0,0,0,0,0,0,0,0,0,0,0,0,0,0,0,0,0,0,0,0,0,0,0,0,0,0,0,0,0,0,0,0,0,0,0,0,0,0,0,0,0,0,0,0,0,0,0,0,0,0,0,0,0,0]}]],[[{"header":{"parameterUnit":"kt","parameterCategory":2,"dx":1,"dy":1,"la1":30.253999710083008,"la2":30.299108505249023,"lo1":-89.0895004272461,"lo2":-89.04439544677734,"nx":28,"ny":28,"refTime":"2022-10-26T21:00:00:Z","depth":"4","parameterNumber":2,"parameterNumberName":"U-component_of_CURRENTS"},"data":[0.2769,0.2871,0.2908,0.2895,0.2932,0.3068,0.3193,0.3394,0.3373,0.3686,0.3759,0.4006,0.4166,0.4366,0.4328,0.4375,0.4299,0.4825,0.4814,0.4866,0.4895,0.4921,0.4749,0,0,0,0,0,0.2852,0.2875,0.2991,0.3102,0.3267,0.3365,0.3586,0.3722,0.401,0.396,0.4125,0.4258,0.4348,0.4512,0.4405,0.478,0.4858,0.4634,0.4657,0.4884,0.4917,0.4738,0,0,0,0,0,0,0.2971,0.3014,0.3192,0.3319,0.3497,0.3549,0.3679,0.3808,0.3933,0.4308,0.4341,0.463,0.4899,0.4874,0.494,0.4917,0.4825,0.4629,0.4673,0.4706,0.4521,0.4356,0.415,0,0,0,0,0,0.306,0.3199,0.332,0.3498,0.3658,0.3786,0.3999,0.4033,0.4346,0.4619,0.4711,0.4788,0.4951,0.5042,0.5099,0.5103,0.532,0.5231,0.5245,0.51,0.5021,0.4992,0.4996,0.504,0.5044,0.5046,0.5048,0,0.3195,0.3263,0.3546,0.3636,0.3774,0.3975,0.4102,0.4381,0.4492,0.4845,0.4897,0.5161,0.5304,0.524,0.542,0.5436,0.5373,0.5317,0.5163,0.5072,0.5036,0.5032,0.5027,0.5074,0.5072,0.507,0.5068,0,0.3265,0.3429,0.3571,0.3836,0.3925,0.4042,0.4313,0.4429,0.4688,0.4861,0.4955,0.5224,0.5382,0.5509,0.5646,0.5493,0.5489,0.5417,0.5662,0.5639,0.5083,0.5067,0.5117,0.5107,0.5099,0.5093,0.5087,0,0.3407,0.3508,0.3755,0.3814,0.3969,0.4145,0.4326,0.4491,0.4718,0.4847,0.506,0.517,0.5361,0.5475,0.5502,0.5446,0.564,0.5289,0.5255,0.5472,0.5456,0.5432,0.541,0.5618,0.5617,0.5616,0.5615,0,0.3462,0.3654,0.3767,0.383,0.4046,0.4162,0.4295,0.4508,0.4619,0.4878,0.4988,0.5168,0.5288,0.5365,0.544,0.5402,0.5581,0.5518,0.5263,0.5242,0.5419,0.5398,0.5614,0.5614,0.5614,0.5613,0.5613,0,0.356,0.3655,0.3787,0.3969,0.4017,0.4124,0.4333,0.4449,0.4663,0.4776,0.493,0.5015,0.5172,0.5137,0.5302,0.5259,0.5286,0.5305,0.531,0.4992,0.4892,0.5105,0.5306,0.5303,0.5301,0.5298,0.5296,0,0.3564,0.3689,0.3775,0.391,0.3981,0.4113,0.423,0.4369,0.4499,0.4651,0.4753,0.4895,0.4893,0.4978,0.5046,0.5111,0.5173,0.5086,0.5155,0.5157,0.4862,0.4979,0.5148,0.5262,0.5266,0.527,0.5272,0,0.3538,0.3714,0.3738,0.381,0.3957,0.401,0.415,0.4282,0.4396,0.4524,0.4658,0.478,0.4841,0.4873,0.4902,0.4965,0.5115,0.4951,0.4952,0.4974,0.5272,0.4973,0.4965,0.5128,0.5132,0.5135,0.5248,0,0.358,0.3672,0.3715,0.3826,0.3897,0.3981,0.4075,0.4182,0.4284,0.4352,0.4519,0.4574,0.4675,0.471,0.471,0.4854,0.4835,0.4803,0.4725,0.4855,0.4884,0.4903,0.4636,0.4633,0.4631,0.4629,0,0,0.3536,0.3609,0.3677,0.3742,0.3805,0.3895,0.3963,0.4039,0.4157,0.4226,0.4248,0.4421,0.445,0.4558,0.4622,0.4624,0.4654,0.4607,0.4788,0.4805,0.4822,0.4857,0.4878,0.4626,0.4625,0.4624,0.4623,0,0.3514,0.3595,0.365,0.3711,0.3819,0.3857,0.3902,0.3994,0.4069,0.4179,0.4213,0.4311,0.4387,0.4426,0.4449,0.4586,0.4561,0.4615,0.4696,0.4767,0.4787,0.4806,0.4844,0.4865,0.4618,0.4618,0.4619,0,0.3484,0.3536,0.3575,0.3663,0.3725,0.3787,0.3808,0.3908,0.3978,0.3978,0.4113,0.416,0.4186,0.4282,0.4332,0.4289,0.4465,0.4401,0.4413,0.441,0.4478,0.4502,0.4524,0.424,0.4239,0.4238,0,0,0.347,0.3533,0.3593,0.3658,0.3698,0.3769,0.382,0.3872,0.3938,0.3986,0.4034,0.4093,0.4149,0.4187,0.4227,0.4298,0.4295,0.4357,0.4374,0.4389,0.4394,0.4466,0.449,0.4234,0.4234,0.4234,0,0,0.3452,0.3526,0.3565,0.3632,0.3697,0.3743,0.381,0.3855,0.3945,0.3985,0.3992,0.4006,0.4123,0.4109,0.4057,0.4211,0.4136,0.4147,0.4221,0.4243,0.426,0.4258,0.4004,0,0,0,0,0,0.3464,0.3508,0.3543,0.3562,0.366,0.3719,0.3735,0.3813,0.3859,0.3909,0.3974,0.395,0.4093,0.4045,0.405,0.4127,0.4181,0.419,0.4199,0.4313,0.4336,0.4356,0,0,0,0,0,0,0.3472,0.3491,0.3541,0.3582,0.3607,0.3716,0.3732,0.3753,0.3856,0.387,0.3939,0.3948,0.3939,0.4041,0.4046,0.4119,0.4002,0.4185,0.4193,0.42,0.4321,0.434,0.4356,0,0,0,0,0,0.3478,0.3494,0.3636,0.3583,0.3604,0.3708,0.3734,0.3752,0.385,0.386,0.3876,0.3919,0.3936,0.3946,0.4043,0.4119,0.3998,0.4,0.419,0.4196,0.4202,0.433,0,0,0,0,0,0,0.3483,0.3502,0.3642,0.3652,0.3601,0.3707,0.3726,0.375,0.3836,0.3853,0.383,0.3837,0.3934,0.3942,0.3949,0.4122,0.3995,0.3997,0.3999,0.4195,0.4199,0.4204,0,0,0,0,0,0,0.3495,0.3509,0.3647,0.3666,0.3678,0.3705,0.3722,0.3735,0.3835,0.38,0.381,0.3832,0.3921,0.3939,0.3945,0.3961,0.3993,0.3995,0.3996,0.3997,0.4199,0.4202,0,0,0,0,0,0,0.3502,0.3514,0.3663,0.3672,0.3683,0.379,0.3716,0.3812,0.3865,0.3794,0.3871,0.3874,0.3916,0.3924,0.3941,0.3954,0.3959,0.3993,0.3995,0.3995,0.3996,0,0,0,0,0,0,0,0.3508,0.3407,0.3592,0.3678,0.3688,0.3739,0.3741,0.3743,0.3865,0.3868,0.387,0.3873,0.3982,0.3984,0.3987,0.3949,0,0,0.3993,0.3994,0,0,0,0,0,0,0,0,0.3404,0.3407,0.3592,0.3595,0.3597,0.3739,0.3741,0.3743,0.3866,0.3868,0.387,0.3872,0.3983,0.3985,0.3986,0,0,0,0,0,0,0,0,0,0,0,0,0,0,0,0.3593,0.3595,0,0.374,0.3741,0.3742,0.3866,0.3868,0.3869,0.3871,0.3983,0.3985,0.3986,0,0,0,0,0,0,0,0,0,0,0,0,0,0,0,0,0,0,0,0,0,0,0,0,0,0,0,0,0,0,0,0,0,0,0,0,0,0,0,0,0,0,0,0,0,0,0,0,0,0,0,0,0,0,0,0,0,0,0,0,0,0,0,0,0,0,0,0,0]}],[{"header":{"parameterUnit":"kt","parameterCategory":2,"dx":1,"dy":1,"la1":30.253999710083008,"la2":30.299108505249023,"lo1":-89.0895004272461,"lo2":-89.04439544677734,"nx":28,"ny":28,"refTime":"2022-10-26T21:00:00:Z","depth":"4","parameterNumber":3,"parameterNumberName":"V-component_of_CURRENTS"},"data":[0.0897,0.1011,0.1072,0.1256,0.1367,0.1539,0.1641,0.169,0.1683,0.17,0.1461,0.1364,0.0903,0.1191,0.0446,0.0345,0.0162,-0.0294,-0.0302,-0.0552,-0.0547,-0.0543,-0.0441,0,0,0,0,0,0.088,0.0951,0.1081,0.1229,0.1383,0.1472,0.1621,0.1664,0.1724,0.1731,0.1703,0.1465,0.0994,0.0792,0.0455,0.033,-0.0127,-0.0082,-0.0288,-0.0549,-0.0544,-0.0447,0,0,0,0,0,0,0.0854,0.0918,0.1034,0.1166,0.1317,0.1453,0.1505,0.1589,0.1653,0.1675,0.1663,0.1384,0.1228,0.0732,0.0404,0.0069,-0.0037,-0.0164,-0.0179,-0.0179,-0.0046,0.007,0.0021,0,0,0,0,0,0.0817,0.0874,0.0956,0.1106,0.1219,0.134,0.1456,0.1516,0.1573,0.1577,0.1549,0.1315,0.1055,0.0665,0.0304,-0.0036,-0.03,-0.0412,-0.0412,-0.0432,-0.0381,-0.0417,-0.0403,-0.0524,-0.0523,-0.0523,-0.0523,0,0.0771,0.0829,0.0963,0.1037,0.1081,0.1186,0.1265,0.1305,0.1372,0.1387,0.1424,0.1252,0.1108,0.0638,0.0298,-0.0168,-0.0246,-0.0396,-0.0416,-0.037,-0.0412,-0.0398,-0.0386,-0.0519,-0.0519,-0.0519,-0.052,0,0.0749,0.0785,0.0886,0.0967,0.1003,0.108,0.1179,0.1236,0.1222,0.1278,0.1274,0.1131,0.0905,0.0612,0.0269,0.006,-0.0216,-0.032,-0.0173,-0.0219,-0.0385,-0.0373,-0.0512,-0.0513,-0.0514,-0.0516,-0.0516,0,0.0703,0.0766,0.0829,0.0869,0.0969,0.0981,0.1065,0.1057,0.1065,0.1112,0.0969,0.0957,0.0673,0.0505,0.0263,-0.0011,-0.0015,-0.0227,-0.0283,-0.0186,-0.0177,-0.0235,-0.023,-0.0264,-0.0262,-0.0261,-0.026,0,0.0647,0.0713,0.079,0.0806,0.0856,0.0894,0.0924,0.0908,0.0938,0.0874,0.0874,0.0726,0.067,0.0459,0.0226,0.0218,-0.0032,-0.0081,-0.0239,-0.0241,-0.0226,-0.0223,-0.0259,-0.0258,-0.0258,-0.0258,-0.0257,0,0.0585,0.0623,0.0703,0.0765,0.0778,0.0813,0.0846,0.086,0.0806,0.0767,0.0699,0.0622,0.0524,0.044,0.0214,0.0269,0.0114,-0.0001,-0.0011,-0.0051,-0.0108,-0.0134,-0.0142,-0.014,-0.0139,-0.0137,-0.0136,0,0.0529,0.0591,0.0586,0.0658,0.0691,0.0661,0.0681,0.0667,0.0633,0.0611,0.0508,0.048,0.0391,0.0373,0.0285,0.0158,0.0076,0.015,-0.0075,-0.0081,-0.0083,-0.0095,0.005,-0.0113,-0.0116,-0.0118,-0.012,0,0.0475,0.0496,0.0502,0.0534,0.0524,0.0539,0.0549,0.0542,0.0553,0.0482,0.0479,0.0398,0.0339,0.0309,0.0244,0.0176,0.0103,0.0119,0.0113,0.0062,-0.0063,-0.0068,-0.0082,0.0057,0.0056,0.0055,-0.0104,0,0.0429,0.0449,0.046,0.0471,0.0473,0.0484,0.0453,0.0443,0.0413,0.0377,0.0341,0.026,0.0214,0.0187,0.0153,0.0118,0.0089,0.0051,0.0023,0.0037,-0.0035,-0.0047,0.007,0.0068,0.0067,0.0066,0,0,0.0377,0.0397,0.0362,0.0378,0.0382,0.0328,0.0357,0.0329,0.0284,0.0274,0.0243,0.0165,0.0117,0.0097,0.01,0.0073,0.0024,0.0089,0.0037,0.0035,0.0032,-0.0036,-0.0045,0.0064,0.0063,0.0063,0.0062,0,0.0354,0.0338,0.036,0.0346,0.0324,0.0302,0.0306,0.0261,0.024,0.0229,0.0174,0.0134,0.01,0.0059,0.0037,0.0058,-0.0004,0.0052,0.0109,0.0029,0.0028,0.0027,-0.0039,-0.0047,0.0059,0.006,0.006,0,0.0311,0.0298,0.0302,0.0281,0.0257,0.0262,0.0206,0.0197,0.0202,0.013,0.0124,0.0076,0.0029,0.0018,0.001,-0.0002,-0.0035,-0.0005,-0.0,0.0011,-0.0074,-0.0074,-0.0074,-0.0072,-0.0072,-0.0072,0,0,0.0294,0.0302,0.0264,0.0271,0.0262,0.0216,0.0203,0.0178,0.0144,0.013,0.0092,0.0055,0.0027,0.0017,-0.0015,-0.0018,-0.0072,-0.0018,-0.0012,-0.0006,0.0008,-0.0074,-0.0075,-0.0073,-0.0073,-0.0073,0,0,0.0279,0.0252,0.0237,0.0243,0.0218,0.0165,0.0164,0.0136,0.0107,0.0106,0.0053,0.0043,0.0031,0.0002,0.0003,-0.0019,-0.005,-0.0051,0.0013,0.002,0.0026,0.0051,-0.0039,0,0,0,0,0,0.0243,0.0259,0.0246,0.0242,0.02,0.0176,0.0167,0.0126,0.0108,0.0108,0.0072,0.0045,-0.0012,-0.0012,-0.0019,-0.0006,-0.0076,-0.0075,-0.0075,0.0005,0.0013,0.002,0,0,0,0,0,0,0.0241,0.0237,0.0245,0.0198,0.0187,0.0175,0.0134,0.0122,0.0107,0.0101,0.0052,0.0044,0.0008,-0.0011,-0.0017,-0.0003,-0.0037,-0.0076,-0.0075,-0.0075,0.0008,0.0014,0.002,0,0,0,0,0,0.0239,0.0236,0.0185,0.0196,0.0187,0.0136,0.0133,0.0123,0.0108,0.0058,0.0049,0.008,0.0009,0.0001,-0.0014,0.0001,-0.0033,-0.0035,-0.0075,-0.0075,-0.0075,0.0011,0,0,0,0,0,0,0.0238,0.0217,0.0181,0.0176,0.0194,0.0135,0.0127,0.0125,0.0065,0.0056,0.0084,0.0081,0.001,0.0004,-0.0002,0.0005,-0.003,-0.0032,-0.0034,-0.0075,-0.0075,-0.0074,0,0,0,0,0,0,0.0218,0.0213,0.0178,0.0178,0.0172,0.0135,0.0128,0.0108,0.0065,0.0093,0.0089,0.0083,0.0025,0.0005,0.0001,-0.0029,-0.0028,-0.003,-0.0031,-0.0032,-0.0075,-0.0075,0,0,0,0,0,0,0.0215,0.021,0.0179,0.0174,0.0169,0.0106,0.0116,0.0078,0.0058,0.0097,0.0057,0.0056,0.0028,0.0022,0.0003,-0.0025,-0.0028,-0.0028,-0.0029,-0.003,-0.0031,0,0,0,0,0,0,0,0.0212,0.026,0.0215,0.0171,0.0167,0.0129,0.0127,0.0126,0.0058,0.0058,0.0057,0.0056,-0.0016,-0.0018,-0.002,-0.0022,0,0,-0.0027,-0.0028,0,0,0,0,0,0,0,0,0.026,0.026,0.0215,0.0214,0.0213,0.0129,0.0127,0.0126,0.0058,0.0058,0.0057,0.0057,-0.0016,-0.0018,-0.002,0,0,0,0,0,0,0,0,0,0,0,0,0,0,0,0.0215,0.0214,0,0.0129,0.0127,0.0126,0.0058,0.0058,0.0057,0.0057,-0.0017,-0.0018,-0.002,0,0,0,0,0,0,0,0,0,0,0,0,0,0,0,0,0,0,0,0,0,0,0,0,0,0,0,0,0,0,0,0,0,0,0,0,0,0,0,0,0,0,0,0,0,0,0,0,0,0,0,0,0,0,0,0,0,0,0,0,0,0,0,0,0,0,0,0,0]}]]]